Regional Weather Roundup
Issued by NWS

Home | Current Version | Previous Version | Text Only | Print | Product List | Glossary Off
Versions: 1 2 3 4 5 6 7 8 9 10 11 12 13 14 15 16 17 18 19 20 21 22 23 24 25 26 27

000
ASUS45 KCYS 121510
RWRWY

WYOMING REGIONAL WEATHER ROUNDUP
NATIONAL WEATHER SERVICE CHEYENNE WY
800 AM MST TUE DEC 12 2017

NOTE:  "FAIR" INDICATES FEW OR NO CLOUDS BELOW 12,000 FEET
WITH NO SIGNIFICANT WEATHER AND/OR OBSTRUCTIONS TO VISIBILITY.

WYZ001-121600-
YELLOWSTONE NATIONAL PARK

CITY           SKY/WX    TMP DP  RH WIND       PRES   REMARKS
LK YELLOWSTONE   N/A      3   0  87 CALM      30.55S
W YELLOWSTONE  NOT AVBL

$$
WYZ002>013-054>058-071-098>099-121600-
NORTHERN WYOMING

CITY           SKY/WX    TMP DP  RH WIND       PRES   REMARKS
JACKSON        FAIR       6   3  87 N7        30.57F WCI  -6
CODY           FAIR      22  15  75 E3        30.30F
GREYBULL       FAIR      12   8  84 CALM      30.35F
WORLAND        FAIR      13  11  92 CALM      30.34F
SHERIDAN       FAIR      28  17  63 NE3       30.19F
BUFFALO        FAIR      38  14  37 W6        30.23F WCI  33
GILLETTE       FAIR      39  17  41 CALM      30.21S
HULETT         FAIR      32  19  59 SW9       30.21S WCI  24
NEWCASTLE      FAIR      27  16  63 CALM      30.24F

$$
WYZ014>020-022>026-101>103-121600-
CENTRAL WYOMING

CITY           SKY/WX    TMP DP  RH WIND       PRES   REMARKS
BIG PINEY      FAIR      12   5  73 E6        30.49R WCI   3
PINEDALE       FAIR      14  10  85 CALM      30.49S
DUBOIS         FAIR      32   3  29 W17       30.43R WCI  21
LANDER         FAIR      19  15  84 CALM      30.37S
RIVERTON       FAIR      16  14  92 CALM      30.39S
CASPER         FAIR      35  15  44 SW22      30.33S WCI  23
DOUGLAS        FAIR      24  18  77 N5        30.29F WCI  18

$$
WYZ021-027>030-104>119-121600-
SOUTHERN WYOMING

CITY           SKY/WX    TMP DP  RH WIND       PRES   REMARKS
EVANSTON       FAIR      31  12  45 S7        30.51S WCI  24
FORT BRIDGER   FAIR      39  10  30 W10       30.52S WCI  32
ROCK SPRINGS   FAIR      25   6  44 NE3       30.48S
DIXON          FAIR       9   5  84 CALM      30.54F
RAWLINS        FAIR      21  12  68 SE5       30.46F WCI  15
SARATOGA       FAIR      23  12  63 CALM      30.48S
LARAMIE        FAIR      28  14  55 SW3       30.40S
CHEYENNE       FAIR      43  15  32 W17       30.32S
TORRINGTON     FAIR      25  17  72 NW6       30.27F WCI  18
PINE BLUFFS    FAIR      27  18  69 MISG      30.31F

$$




USA.gov is the U.S. government's official web portal to all federal, state and local government web resources and services.